Location: Baix
(44.7118°N, 4.7648°E)
Time: 17:09:51
(UTC+00:00)

ADEOS II - Pass Details

Date: 07 August 2020
Orbit: 799 x 802 km, 98.5° (Epoch: 23 September)

Event Time Altitude Azimuth Distance (km) Brightness Sun altitude
Rises 03:59:03 0° 355° (N) 3,321 5.7 -6.4°
Reaches altitude 10° 04:02:59 10° 326° (NW) 2,384 4.5 -5.8°
Maximum altitude 04:04:50 12° 305° (NW) 2,250 4.2 -5.5°
Drops below altitude 10° 04:06:41 10° 284° (WNW) 2,379 4.1 -5.2°
Enters shadow 04:09:19 - 262° (W) 2,930 4.4 -4.8°
